| time (UTC) | temp F | wind direction | speed knots | gust knots | rain 1hr in | rain 24hr in | rain mn in | humidity % | barometer mb |
| 20260509210030 | 77 | 110 | 7.0 | 0.0 | 0.00 | 0.00 | 0.00 | 100 | 1008.0 |
| 20260509204531 | 77 | 110 | 7.0 | 0.0 | 0.00 | 0.00 | 0.00 | 100 | 1009.0 |
| 20260509203031 | 77 | 110 | 7.0 | 0.0 | 0.00 | 0.00 | 0.00 | 100 | 1009.0 |
| 20260509201531 | 77 | 110 | 7.0 | 0.0 | 0.00 | 0.00 | 0.00 | 100 | 1009.0 |
| 20260509200031 | 77 | 110 | 7.0 | 0.0 | 0.00 | 0.00 | 0.00 | 100 | 1009.0 |
| 20260509194531 | 77 | 110 | 7.0 | 0.0 | 0.00 | 0.00 | 0.00 | 100 | 1009.0 |
| 20260509193030 | 77 | 110 | 7.0 | 0.0 | 0.00 | 0.00 | 0.00 | 100 | 1009.0 |
| 20260509191531 | 77 | 110 | 7.0 | 0.0 | 0.00 | 0.00 | 0.00 | 100 | 1009.0 |
| 20260509190033 | 77 | 110 | 7.0 | 0.0 | 0.00 | 0.00 | 0.00 | 100 | 1009.0 |
| 20260509184531 | 77 | 110 | 7.0 | 0.0 | 0.00 | 0.00 | 0.00 | 100 | 1009.0 |
| 20260509183030 | 77 | 110 | 6.1 | 0.0 | 0.00 | 0.00 | 0.00 | 100 | 1010.0 |
| 20260509181531 | 77 | 110 | 6.1 | 0.0 | 0.00 | 0.00 | 0.00 | 100 | 1010.0 |
| 20260509180033 | 77 | 230 | 4.3 | 0.0 | 0.00 | 0.00 | 0.00 | 100 | 1010.0 |
| 20260509174531 | 77 | 230 | 4.3 | 0.0 | 0.00 | 0.00 | 0.00 | 100 | 1010.0 |
| 20260509173031 | 77 | 230 | 4.3 | 0.0 | 0.00 | 0.00 | 0.00 | 100 | 1010.0 |
| 20260509171530 | 77 | 230 | 4.3 | 0.0 | 0.00 | 0.00 | 0.00 | 100 | 1010.0 |
| 20260509170032 | 77 | 230 | 4.3 | 0.0 | 0.00 | 0.00 | 0.00 | 100 | 1010.0 |
| 20260509164530 | 77 | 230 | 4.3 | 0.0 | 0.00 | 0.00 | 0.00 | 100 | 1010.0 |
| 20260509163030 | 77 | 230 | 4.3 | 0.0 | 0.00 | 0.00 | 0.00 | 100 | 1010.0 |
| 20260509161530 | 77 | 230 | 4.3 | 0.0 | 0.00 | 0.00 | 0.00 | 100 | 1010.0 |
| 20260509160034 | 77 | 230 | 4.3 | 0.0 | 0.00 | 0.00 | 0.00 | 100 | 1011.0 |
| 20260509154530 | 77 | 230 | 4.3 | 0.0 | 0.00 | 0.00 | 0.00 | 100 | 1010.0 |
| 20260509153031 | 77 | 230 | 4.3 | 0.0 | 0.00 | 0.00 | 0.00 | 100 | 1011.0 |
| 20260509151530 | 77 | 230 | 4.3 | 0.0 | 0.00 | 0.00 | 0.00 | 100 | 1010.0 |
| 20260509150034 | 77 | 230 | 4.3 | 0.0 | 0.00 | 0.00 | 0.00 | 100 | 1011.0 |
| 20260509144531 | 77 | 230 | 4.3 | 0.0 | 0.00 | 0.00 | 0.00 | 100 | 1010.0 |
| 20260509143031 | 77 | 230 | 4.3 | 0.0 | 0.00 | 0.00 | 0.00 | 100 | 1011.0 |
| 20260509141531 | 77 | 230 | 4.3 | 0.0 | 0.00 | 0.00 | 0.00 | 100 | 1010.0 |
| 20260509140035 | 77 | 230 | 4.3 | 0.0 | 0.00 | 0.00 | 0.00 | 100 | 1011.0 |
| 20260509134531 | 77 | 230 | 4.3 | 0.0 | 0.00 | 0.00 | 0.00 | 100 | 1010.0 |
| 20260509133031 | 82 | 200 | 9.6 | 0.0 | 0.00 | 0.00 | 0.00 | 89 | 1010.0 |
| 20260509131530 | 82 | 200 | 9.6 | 0.0 | 0.00 | 0.00 | 0.00 | 89 | 1010.0 |
| 20260509130035 | 82 | 200 | 9.6 | 0.0 | 0.00 | 0.00 | 0.00 | 89 | 1010.0 |
| 20260509124531 | 82 | 200 | 9.6 | 0.0 | 0.00 | 0.00 | 0.00 | 89 | 1010.0 |
| 20260509123030 | 82 | 310 | 8.7 | 0.0 | 0.00 | 0.00 | 0.00 | 89 | 1010.0 |
| 20260509121531 | 82 | 310 | 8.7 | 0.0 | 0.00 | 0.00 | 0.00 | 89 | 1009.0 |
| 20260509120036 | 82 | 310 | 8.7 | 0.0 | 0.00 | 0.00 | 0.00 | 89 | 1009.0 |
| 20260509114530 | 84 | 310 | 8.7 | 0.0 | 0.00 | 0.00 | 0.00 | 89 | 1009.0 |
| 20260509113030 | 86 | 310 | 7.8 | 0.0 | 0.00 | 0.00 | 0.00 | 79 | 1009.0 |
| 20260509111530 | 86 | 310 | 7.8 | 0.0 | 0.00 | 0.00 | 0.00 | 79 | 1009.0 |
| 20260509110031 | 86 | 300 | 5.2 | 0.0 | 0.00 | 0.00 | 0.00 | 79 | 1009.0 |
| 20260509104530 | 86 | 300 | 5.2 | 0.0 | 0.00 | 0.00 | 0.00 | 79 | 1009.0 |
| 20260509103031 | 86 | 310 | 6.1 | 0.0 | 0.00 | 0.00 | 0.00 | 74 | 1009.0 |
| 20260509101531 | 86 | 310 | 6.1 | 0.0 | 0.00 | 0.00 | 0.00 | 74 | 1008.0 |
| 20260509100031 | 86 | 330 | 8.7 | 0.0 | 0.00 | 0.00 | 0.00 | 74 | 1008.0 |
| 20260509094530 | 86 | 330 | 8.7 | 0.0 | 0.00 | 0.00 | 0.00 | 74 | 1008.0 |
| 20260509093031 | 86 | 320 | 8.7 | 0.0 | 0.00 | 0.00 | 0.00 | 74 | 1008.0 |
| 20260509091531 | 86 | 320 | 8.7 | 0.0 | 0.00 | 0.00 | 0.00 | 74 | 1007.0 |
| 20260509090031 | 86 | 320 | 7.8 | 0.0 | 0.00 | 0.00 | 0.00 | 74 | 1007.0 |
| 20260509084531 | 86 | 320 | 7.8 | 0.0 | 0.00 | 0.00 | 0.00 | 74 | 1007.0 |
| 20260509083030 | 87 | 320 | 11.3 | 0.0 | 0.00 | 0.00 | 0.00 | 70 | 1007.0 |
| 20260509081515 | 91 | 358 | 4.3 | 4.3 | 0.01 | 0.00 | 0.00 | 69 | 1007.0 |
| 20260509080017 | 92 | 358 | 4.3 | 4.3 | 0.00 | 0.00 | 0.00 | 69 | 1007.0 |
| 20260509074514 | 92 | 358 | 4.3 | 4.3 | 0.00 | 0.00 | 0.00 | 67 | 1007.0 |
| 20260509073017 | 92 | 358 | 4.3 | 4.3 | 0.00 | 0.00 | 0.00 | 67 | 1007.0 |
| 20260509071515 | 92 | 17 | 5.2 | 3.5 | 0.00 | 0.00 | 0.00 | 64 | 1007.0 |
| 20260509070018 | 92 | 17 | 5.2 | 3.5 | 0.00 | 0.00 | 0.00 | 65 | 1007.0 |
| 20260509064517 | 92 | 17 | 5.2 | 3.5 | 0.00 | 0.00 | 0.00 | 64 | 1007.0 |
| 20260509063019 | 92 | 17 | 5.2 | 3.5 | 0.00 | 0.00 | 0.00 | 64 | 1008.0 |
| 20260509061517 | 92 | 31 | 4.3 | 2.6 | 0.00 | 0.00 | 0.00 | 64 | 1008.0 |
| 20260509060026 | 92 | 31 | 4.3 | 2.6 | 0.00 | 0.00 | 0.00 | 64 | 1008.0 |
| 20260509054517 | 92 | 31 | 4.3 | 2.6 | 0.00 | 0.00 | 0.00 | 64 | 1008.0 |
| 20260509053021 | 92 | 37 | 4.3 | 2.6 | 0.00 | 0.00 | 0.00 | 63 | 1008.0 |
| 20260509051517 | 91 | 54 | 4.3 | 3.5 | 0.00 | 0.00 | 0.00 | 64 | 1009.0 |
| 20260509050028 | 91 | 54 | 4.3 | 3.5 | 0.00 | 0.00 | 0.00 | 64 | 1009.0 |
| 20260509044520 | 91 | 54 | 4.3 | 3.5 | 0.00 | 0.00 | 0.00 | 64 | 1009.0 |
| 20260509043024 | 89 | 61 | 5.2 | 4.3 | 0.00 | 0.00 | 0.00 | 65 | 1010.0 |
| 20260509041518 | 91 | 70 | 4.3 | 4.3 | 0.00 | 0.00 | 0.00 | 67 | 1010.0 |
| 20260509040034 | 91 | 70 | 4.3 | 4.3 | 0.00 | 0.00 | 0.00 | 67 | 1010.0 |
| 20260509034521 | 91 | 70 | 4.3 | 4.3 | 0.01 | 0.00 | 0.00 | 67 | 1010.0 |
| 20260509033025 | 90 | 70 | 4.3 | 4.3 | 0.00 | 0.00 | 0.00 | 67 | 1010.0 |
| 20260509031521 | 90 | 87 | 4.3 | 4.3 | 0.00 | 0.00 | 0.00 | 70 | 1011.0 |
| 20260509030031 | 90 | 87 | 4.3 | 4.3 | 0.00 | 0.00 | 0.00 | 70 | 1011.0 |
| 20260509024524 | 90 | 87 | 4.3 | 4.3 | 0.00 | 0.00 | 0.00 | 71 | 1011.0 |
| 20260509023032 | 90 | 87 | 4.3 | 4.3 | 0.00 | 0.00 | 0.00 | 71 | 1011.0 |
| 20260509021521 | 89 | 101 | 3.5 | 4.3 | 0.00 | 0.00 | 0.00 | 76 | 1011.0 |
| 20260509020025 | 88 | 101 | 3.5 | 4.3 | 0.00 | 0.00 | 0.00 | 75 | 1011.0 |
| 20260509014519 | 88 | 101 | 3.5 | 4.3 | 0.00 | 0.00 | 0.00 | 81 | 1011.0 |
| 20260509013027 | 88 | 101 | 3.5 | 4.3 | 0.00 | 0.00 | 0.00 | 81 | 1011.0 |
| 20260509011524 | 86 | 105 | 3.5 | 3.5 | 0.00 | 0.00 | 0.00 | 88 | 1011.0 |
| 20260509010028 | 86 | 105 | 3.5 | 3.5 | 0.00 | 0.00 | 0.00 | 86 | 1011.0 |
| 20260509004520 | 83 | 98 | 2.6 | 2.6 | 0.00 | 0.00 | 0.00 | 87 | 1011.0 |
| 20260509003021 | 85 | 105 | 3.5 | 3.5 | 0.00 | 0.00 | 0.00 | 88 | 1011.0 |
| 20260509001518 | 83 | 117 | 2.6 | 3.5 | 0.00 | 0.00 | 0.00 | 91 | 1010.0 |
| 20260509000039 | 83 | 117 | 2.6 | 3.5 | 0.00 | 0.00 | 0.00 | 91 | 1010.0 |
| 20260508234519 | 83 | 117 | 2.6 | 3.5 | 0.00 | 0.00 | 0.00 | 91 | 1010.0 |
| 20260508233026 | 83 | 121 | 1.7 | 2.6 | 0.00 | 0.00 | 0.00 | 90 | 1010.0 |
| 20260508231518 | 82 | 158 | 2.6 | 2.6 | 0.00 | 0.00 | 0.00 | 91 | 1009.0 |
| 20260508230024 | 82 | 158 | 2.6 | 2.6 | 0.00 | 0.00 | 0.00 | 92 | 1009.0 |
| 20260508224517 | 82 | 158 | 2.6 | 2.6 | 0.00 | 0.00 | 0.00 | 93 | 1009.0 |
| 20260508223024 | 82 | 158 | 2.6 | 2.6 | 0.00 | 0.00 | 0.00 | 93 | 1009.0 |
| 20260508221521 | 82 | 156 | 1.7 | 1.7 | 0.00 | 0.00 | 0.00 | 93 | 1009.0 |
| 20260508220032 | 82 | 156 | 1.7 | 1.7 | 0.00 | 0.00 | 0.00 | 93 | 1009.0 |
| 20260508214518 | 82 | 156 | 1.7 | 1.7 | 0.00 | 0.00 | 0.00 | 93 | 1009.0 |
| 20260508213022 | 82 | 156 | 1.7 | 1.7 | 0.00 | 0.00 | 0.00 | 93 | 1009.0 |
| 20260508211520 | 83 | 157 | 2.6 | 2.6 | 0.00 | 0.00 | 0.00 | 93 | 1009.0 |